This demonstration page uses our WeatherBlox Daily Observations layout. Learn more.

Left ArrowRight Arrow

36.19886, -115.1175

Hourly Observations for June 9, 2021

Temp ( °F °C ) Dew Point ( °F °C ) Humidity (%) Winds ( mph kmh ) Pressure ( in mb ) Visibility ( mi km ) Precip ( " mm )
12:53 am 00:53 Clear 82 27.8 31 -0.6 16 16 S 8 13 29.84 1011 10 16 N/A
1:53 am 01:53 Clear 80 26.7 33 0.6 18 18 S 8 13 29.84 1011 10 16 N/A
2:53 am 02:53 Clear 78 25.6 33 0.6 19 19 S 6 9 29.84 1011 10 16 N/A
3:53 am 03:53 Clear 76 24.4 35 1.7 23 23 SE 9 15 29.84 1011 10 16 N/A
4:53 am 04:53 Clear 76 24.4 35 1.7 23 23 SSW 7 11 29.85 1011 10 16 N/A
5:53 am 05:53 Sunny 74 23.3 35 1.7 24 24 ESE 6 9 29.87 1012 10 16 N/A
6:53 am 06:53 Sunny 77 25 35 1.7 22 22 SE 7 11 29.88 1012 10 16 N/A
7:53 am 07:53 Sunny 80 26.7 35 1.7 20 20 S 6 9 29.89 1012 10 16 N/A
8:53 am 08:53 Sunny 84 28.9 33 0.6 16 16 SSE 10 17 29.90 1013 10 16 N/A
9:53 am 09:53 Sunny 86 30 31 -0.6 14 14 SSE 12 19 29.90 1012 10 16 N/A
10:53 am 10:53 Sunny 89 31.7 29 -1.7 11 11 SSE 18 30 29.89 1012 10 16 N/A
11:53 am 11:53 Sunny 92 33.3 27 -2.8 10 10 S 20 31 29.87 1012 10 16 N/A
12:53 pm 12:53 Sunny 92 33.3 28 -2.2 10 10 SSW 21 33 29.86 1011 10 16 N/A
1:53 pm 13:53 Sunny 95 35 28 -2.2 9 9 SSW 16 26 29.83 1010 10 16 N/A
2:53 pm 14:53 Sunny 95 35 27 -2.8 9 9 SW 20 31 29.81 1010 10 16 N/A
3:53 pm 15:53 Sunny 94 34.4 27 -2.8 9 9 SSW 17 28 29.80 1009 10 16 N/A
4:53 pm 16:53 Sunny 95 35 28 -2.2 9 9 SW 20 31 29.78 1009 10 16 N/A
5:53 pm 17:53 Sunny 94 34.4 28 -2.2 9 9 SW 16 26 29.78 1009 10 16 N/A
6:53 pm 18:53 Sunny 92 33.3 30 -1.1 11 11 SSW 14 22 29.78 1009 10 16 N/A
7:53 pm 19:53 Sunny 90 32.2 31 -0.6 12 12 WSW 16 26 29.78 1009 10 16 N/A
8:53 pm 20:53 Clear 88 31.1 30 -1.1 12 12 WSW 17 28 29.78 1009 10 16 N/A
9:53 pm 21:53 Clear 85 29.4 31 -0.6 14 14 WSW 15 24 29.80 1009 10 16 N/A
10:53 pm 22:53 Clear 83 28.3 31 -0.6 15 15 SW 17 28 29.80 1009 10 16 N/A
11:53 pm 23:53 Clear 80 26.7 28 -2.2 15 15 SW 22 35 29.80 1009 10 16 N/A

Powered by AerisWeather